Location: 81360 Arifat, France
(43.7204°N, 2.3408°E)
Time: 17:53:49
(UTC+02:00)

GHALIB - Pass Details

Date: 06 June 2022
Orbit: 510 x 523 km, 97.6° (Epoch: 29 June)

Event Time Altitude Azimuth Distance (km) Brightness Sun altitude
Exits shadow 03:58:07 38° 235° (SW) 805 ? -17.4°
Maximum altitude 03:58:43 41° 261° (W) 760 ? -17.3°
Drops below altitude 10° 04:02:19 10° 333° (NNW) 1,755 ? -17.0°
Sets 04:04:31 0° 341° (NNW) 2,645 ? -16.8°
